Regional Weather Roundup
Issued by NWS

Home | Current Version | Previous Version | Text Only | Print | Product List | Glossary On
Versions: 1 2 3 4 5 6 7 8 9 10 11 12 13 14 15 16 17 18 19 20 21 22 23 24 25 26 27 28 29 30 31 32 33 34 35 36 37 38 39 40 41 42 43 44 45 46 47 48 49 50
000
ASUS46 KSEW 311910
RWRWA

WASHINGTON REGIONAL WEATHER ROUNDUP
NATIONAL WEATHER SERVICE SEATTLE WA
1100 AM PST SAT JAN 31 2015

NOTE:"FAIR" INDICATES FEW OR NO CLOUDS BELOW 12,000 FEET WITH NO
SIGNIFICANT WEATHER AND/OR OBSTRUCTIONS TO VISIBILITY.

WAZ505-507>509-312000-
SEATTLE, TACOMA, EVERETT, AND VICINITY

CITY           SKY/WX    TMP DP  RH WIND       PRES   REMARKS
EVERETT        FOG       38  37  97 N5        30.23S VSB<1/4
BOEING FIELD   CLOUDY    42  38  85 CALM      30.26R FOG
RENTON         CLOUDY    39  38  96 NW7       30.26R FOG
SEATAC AIRPORT FOG       41  39  93 NW5       30.23S VSB 1/2
JBLM-MCCHORD   FOG       41  41 100 N3        30.23F VSB 3/4
PUYALLUP       MIX PCPN  37  37 100 CALM      30.24R VSB 1/4
BREMERTON      CLOUDY    41  39  93 CALM      30.24F
JBLM-FT LEWIS  FOG       40  40 100 NE2       30.23F VSB 3/4
TACOMA NARROWS FOG       41  40  96 NE3       30.24R VSB 1/4
$$

WAZ001-503-506-510-514-515-312000-
NORTH INTERIOR

CITY           SKY/WX    TMP DP  RH WIND       PRES   REMARKS
BELLINGHAM     MOSUNNY   39  37  92 CALM      30.26R
FRIDAY HARBOR  CLOUDY    44  39  82 N6        30.27S
EASTSOUND      MOSUNNY   43  39  87 N5        30.26S
PORT ANGELES   CLOUDY    43  40  89 E7        30.24F
NAS WHIDBEY    CLOUDY    45  41  86 NW5       30.27R
ARLINGTON      CLOUDY    36  34  93 W3        30.26R VSB 1/4
BURLINGTON     CLOUDY    39 N/A N/A NW8       30.27R VSB 1/2
$$

WAZ020-022-039-040-504-511-512-312000-
SOUTHWEST INTERIOR

CITY           SKY/WX    TMP DP  RH WIND       PRES   REMARKS
SHELTON        FOG       39  37  92 E6        30.21F VSB 3/4
OLYMPIA        CLOUDY    41  40  96 E7        30.22F FOG
CHEHALIS       CLOUDY    41  41 100 NE5       30.23F FOG
KELSO          CLOUDY    39  36  87 S3        30.26F
VANCOUVER      CLOUDY    36  35  96 N3        30.23F FOG
SCAPPOOSE, OR  CLOUDY    37  36  96 VRB3      30.23F FOG
PORTLAND, OR   FOG       36  36 100 W5        30.24F VSB 1
$$

WAZ021-516-517-312000-
WASHINGTON COAST

CITY           SKY/WX    TMP DP  RH WIND       PRES   REMARKS
FORKS          CLOUDY    46  43  89 E7        30.19R
HOQUIAM        PTSUNNY   42  40  92 E15       30.19F FOG
ASTORIA, OR    PTSUNNY   45  40  82 NE6       30.16F
$$

WAZ019-023-024-040-518-519-312000-
CASCADE MOUNTAINS AND COLUMBIA GORGE

CITY           SKY/WX    TMP DP  RH WIND       PRES   REMARKS
TROUTDALE, OR  SUNNY     46  34  62 E20G26    30.22S
THE DALLES, OR CLOUDY    41  33  73 E12       30.39S
$$

WAZ026-027-041>044-520-521-312000-
EAST SLOPES

CITY           SKY/WX    TMP DP  RH WIND       PRES   REMARKS
OMAK           SUNNY     40  31  70 N9        30.33S
WENATCHEE      CLOUDY    37  29  72 VRB3      30.35S
ELLENSBURG     CLOUDY    36  30  79 CALM      30.32S
YAKIMA         CLOUDY    38  32  79 CALM      30.36S
$$

WAZ028-034-035-312000-
COLUMBIA BASIN

CITY           SKY/WX    TMP DP  RH WIND       PRES   REMARKS
EPHRATA        CLOUDY    36  31  82 CALM      30.35R
MOSES LAKE     CLOUDY    36  32  85 W3        30.37R
PASCO          CLOUDY    39  34  82 CALM      30.40R
HERMISTON, OR  CLOUDY    38  35  89 NE5       30.37R
$$

WAZ036>038-312000-
NORTHEAST WASHINGTON

CITY           SKY/WX    TMP DP  RH WIND       PRES   REMARKS
SPOKANE GEIGER FLURRIES  31  28  89 SW7       30.29R
SPOKANE FELTS  CLOUDY    33  27  78 SW7       30.32R
FAIRCHILD AFB  FLURRIES  30  30 100 SW5       30.28S
COEURDALENE,ID CLOUDY    34  28  80 W8        30.27S
DEER PARK      CLOUDY    32  28  85 CALM      30.30R
$$

WAZ029>033-312000-
SOUTHEAST WASHINGTON

CITY           SKY/WX    TMP DP  RH WIND       PRES   REMARKS
PULLMAN        CLOUDY    32  27  81 CALM      30.29S
LEWISTON, ID   CLOUDY    37  32  82 CALM      30.32R
WALLA WALLA    CLOUDY    36  32  85 CALM      30.34S
PENDLETON, OR  CLOUDY    34  32  92 CALM      30.33R
$$


USA.gov is the U.S. government's official web portal to all federal, state and local government web resources and services.